EW4169 Weather Reports


Display with metric or nautical units.
time (UTC)temp
F
wind
direction
speed
MPH
gust
MPH
rain 1hr
in
rain 24hr
in
rain mn
in
humidity
%
barometer
mb
20260905163035 79 266 0.0 2.0 0.00 0.00 0.00 67 1010.3
20260905161601 79 276 0.0 4.0 0.00 0.00 0.00 67 1010.3
20260905160051 80 112 0.0 2.0 0.00 0.00 0.00 66 1010.4
20260905154511 80 280 0.0 2.0 0.00 0.00 0.00 64 1010.6
20260905153053 80 135 0.0 2.0 0.00 0.00 0.00 66 1010.6
20260905151528 79 115 0.0 2.0 0.00 0.00 0.00 67 1010.5
20260905150003 77 269 0.0 4.0 0.00 0.00 0.00 72 1010.7
20260905144532 77 276 0.0 2.0 0.00 0.00 0.00 71 1010.7
20260905143053 78 261 0.0 1.0 0.00 0.00 0.00 68 1010.7
20260905141518 79 108 0.0 2.0 0.00 0.00 0.00 67 1010.3
20260905140037 79 248 0.0 1.0 0.00 0.00 0.00 68 1010.1
20260905134516 80 271 0.0 4.0 0.00 0.00 0.00 66 1009.9
20260905133039 79 132 0.0 6.0 0.00 0.00 0.00 67 1009.8
20260905131519 79 281 0.0 6.0 0.00 0.00 0.00 69 1009.7
20260905130045 78 114 0.0 11.0 0.00 0.00 0.00 71 1009.6
20260905124526 77 271 0.0 0.0 0.00 0.00 0.00 81 1009.7
20260905123049 76 231 0.0 0.0 0.00 0.00 0.00 87 1009.8
20260905121531 76 116 0.0 0.0 0.00 0.00 0.00 90 1009.8
20260905120013 75 271 0.0 0.0 0.00 0.00 0.00 89 1009.3
20260905114537 74 271 0.0 0.0 0.00 0.00 0.00 89 1009.3
20260905113016 73 271 0.0 0.0 0.00 0.00 0.00 89 1009.3
20260905111544 72 271 0.0 0.0 0.00 0.00 0.00 89 1009.1
20260905110017 72 271 0.0 0.0 0.00 0.00 0.00 89 1009.1
20260905104612 72 271 0.0 0.0 0.00 0.00 0.00 89 1008.9
20260905103019 72 271 0.0 0.0 0.00 0.00 0.00 89 1008.7
20260905101544 73 271 0.0 0.0 0.00 0.00 0.00 90 1008.4
20260905100028 73 271 0.0 0.0 0.00 0.00 0.00 90 1008.3
20260905094547 73 271 0.0 0.0 0.00 0.00 0.00 90 1008.3
20260905093012 73 271 0.0 0.0 0.00 0.00 0.00 90 1008.4
20260905091605 73 271 0.0 0.0 0.00 0.00 0.00 90 1008.4
20260905090005 73 271 0.0 0.0 0.00 0.00 0.00 91 1008.5
20260905084527 73 272 0.0 0.0 0.00 0.00 0.00 91 1008.4
20260905083007 74 271 0.0 0.0 0.00 0.00 0.00 91 1008.4
20260905081532 74 271 0.0 0.0 0.00 0.00 0.00 91 1008.5
20260905080047 74 271 0.0 0.0 0.00 0.06 0.00 91 1008.4
20260905074523 75 271 0.0 0.0 0.00 0.06 0.00 91 1008.5
20260905073010 75 271 0.0 0.0 0.00 0.06 0.00 90 1008.5
20260905071534 75 271 0.0 0.0 0.00 0.06 0.00 90 1008.7
20260905070020 75 272 0.0 0.0 0.00 0.40 0.00 90 1009.0
20260905064532 76 271 0.0 0.0 0.00 0.40 0.00 90 1009.0
20260905063058 76 271 0.0 0.0 0.00 0.40 0.00 90 1008.8
20260905061521 76 272 0.0 0.0 0.00 0.40 0.00 90 1009.0
20260905060057 76 271 0.0 0.0 0.00 1.26 0.00 90 1009.1
20260905054533 76 275 0.0 0.0 0.00 1.26 0.00 90 1009.0
20260905053048 76 275 0.0 0.0 0.00 1.26 0.00 90 1009.2
20260905051542 76 275 0.0 0.0 0.00 1.26 0.00 91 1009.2
20260905050052 76 275 0.0 0.0 0.00 1.26 0.00 91 1009.6
20260905044520 76 275 0.0 0.0 0.00 1.26 0.00 90 1009.8
20260905043055 76 275 0.0 0.0 0.00 1.26 0.00 90 1009.9
20260905041520 76 275 0.0 0.0 0.00 1.26 0.00 90 1010.0
20260905040050 76 275 0.0 0.0 0.00 1.26 0.00 90 1009.8
20260905034533 76 275 0.0 0.0 0.00 1.26 1.26 90 1010.0
20260905033059 76 275 0.0 0.0 0.00 1.26 1.26 90 1010.1
20260905033001 76 275 0.0 0.0 0.00 1.26 1.26 90 1010.1
20260905031527 76 275 0.0 0.0 0.00 1.26 1.26 90 1010.2
20260905030008 76 275 0.0 0.0 0.00 1.26 1.26 89 1010.3
20260905024553 76 275 0.0 0.0 0.00 1.26 1.26 89 1010.4
20260905023029 76 275 0.0 0.0 0.00 1.26 1.26 89 1010.3
20260905021546 76 275 0.0 0.0 0.00 1.26 1.26 89 1010.3
20260905020034 77 275 0.0 0.0 0.00 1.26 1.26 89 1010.4
20260905014550 77 275 0.0 0.0 0.00 1.26 1.26 89 1010.5
20260905013035 77 275 0.0 0.0 0.00 1.26 1.26 88 1010.5
20260905011516 77 275 0.0 0.0 0.00 1.26 1.26 88 1010.5
20260905010032 77 275 0.0 0.0 0.00 1.26 1.26 87 1010.6
20260905004517 77 275 0.0 0.0 0.00 1.26 1.26 87 1010.4
20260905003006 77 275 0.0 0.0 0.00 1.26 1.26 87 1010.3
20260905001531 77 275 0.0 0.0 0.00 1.26 1.26 86 1010.3
20260905000051 78 275 0.0 0.0 0.00 1.26 1.26 85 1009.9
20260904234542 78 275 0.0 0.0 0.00 1.26 1.26 84 1009.6
20260904233009 79 275 0.0 0.0 0.00 1.26 1.26 82 1009.7
20260904231534 80 275 0.0 0.0 0.00 1.26 1.26 81 1010.0
20260904230015 80 275 0.0 0.0 0.00 1.26 1.26 80 1010.4
20260904224541 81 275 0.0 0.0 0.00 1.26 1.26 79 1010.6
20260904223055 81 275 0.0 0.0 0.00 1.26 1.26 77 1010.8
20260904221538 82 275 0.0 0.0 0.00 1.26 1.26 76 1010.9
20260904220054 82 276 0.0 0.0 0.00 1.26 1.26 77 1011.0
20260904214519 83 276 0.0 0.0 0.00 1.26 1.26 77 1010.7
20260904213105 83 276 0.0 0.0 0.00 1.26 1.26 74 1010.2
20260904211518 84 276 0.0 0.0 0.00 1.26 1.26 73 1010.4
20260904210047 85 276 0.0 0.0 0.00 1.26 1.26 72 1010.5
20260904204509 85 276 0.0 0.0 0.00 1.26 1.26 70 1010.6
20260904203045 85 276 0.0 0.0 0.00 1.26 1.26 70 1010.6
20260904201503 84 276 0.0 0.0 0.00 1.26 1.26 70 1010.4
20260904200025 84 276 0.0 0.0 0.00 1.26 1.26 72 1010.6
20260904194503 84 276 0.0 0.0 0.00 1.26 1.26 72 1010.8
20260904193021 84 276 0.0 0.0 0.00 1.26 1.26 71 1011.0
20260904191543 85 276 0.0 0.0 0.00 1.26 1.26 71 1011.0
20260904190024 85 276 0.0 0.0 0.00 1.26 1.26 72 1011.1
20260904184543 85 276 0.0 0.0 0.00 1.26 1.26 71 1011.3
20260904183011 85 276 0.0 0.0 0.00 1.26 1.26 71 1011.3
20260904181548 85 276 0.0 0.0 0.00 1.26 1.26 70 1011.4
20260904180015 86 278 0.0 0.0 0.00 1.26 1.26 68 1011.6
20260904174553 86 266 0.0 0.0 0.00 1.26 1.26 69 1011.6
20260904173034 86 267 0.0 0.0 0.00 1.26 1.26 68 1011.6
20260904171601 85 264 0.0 0.0 0.00 1.26 1.26 70 1011.7
20260904170034 85 264 0.0 0.0 0.00 1.26 1.26 71 1011.8
20260904164558 85 266 0.0 0.0 0.00 1.26 1.26 70 1011.8